TIMESTAMP,CO2_1_1_1,H2O_1_1_1,TAU_1_1_1,TAU_SSITC_TEST_1_1_1,H_1_1_1,H_SSITC_TEST_1_1_1,LE_1_1_1,LE_SSITC_TEST_1_1_1,FC_1_1_1,FC_SSITC_TEST_1_1_1,WD_0_0_1,WS_0_0_1,WS_MAX_0_0_1,U_SIGMA_0_0_1,V_SIGMA_0_0_1,W_SIGMA_0_0_1,USTAR_0_0_1,MO_LENGTH_0_0_1,ZL_0_0_1,FETCH_MAX_0_0_1,FETCH_70_0_0_1,FETCH_80_0_0_1,FETCH_90_0_0_1,PA_0_0_1,RH_0_0_1,TA_0_0_1,VPD_0_0_1,T_SONIC_0_0_1,T_SONIC_SIGMA_0_0_1
[yyyymmddHHMMSS],[mmolCO2 mol-1],[mmolH2O mol-1],[kg m-1 s-2],[#],[W m-2],[#],[W m-2],[#],[umolCO2 m-2 s-1],[#],[Decimal degrees],[m s-1],[m s-1],[m s-1],[m s-1],[m s-1],[m s-1],[m],[#],[m],[m],[m],[m],[kPa],[%],[deg C],[hPa],[deg C],[deg C]
20221212003000,425.71560966120416,4.4152340214667980,1.7106442552752670E-002,0,-6.9891315279648252,0,3.9460509384205178,0,0.42796214941608013,0,45.329984977851694,1.2299480638364617,2.9596957264365296,0.42113412970135145,0.41093799686643351,0.16481292841854087,0.11866261856050529,20.010232000934934,0.94951422847632483,157.03880173162455,1401.0000000000000,2543.0000000000000,6739.0000000000000,94.545928709635419,82.186206896551724,-2.4782758620689833,0.90504569271378166,-1.9651146867539637,0.13077698479500324
20221212010000,425.96670230341795,4.4778918922961299,2.4751403844941931E-002,0,-6.2695057703421497,0,2.3262606554874794,0,0.27190161468416302,0,60.015023947100133,1.3322289098390692,2.9592355392921941,0.40144456980826182,0.39035865963920174,0.21179879500012269,0.14270201011634367,38.801982445290818,0.48966570269416543,126.64449791722539,1163.0000000000000,2129.0000000000000,5722.0000000000000,94.564047980251743,83.890000000000001,-2.5623333333333562,0.81339497365161662,-2.0499975433349391,0.11815889960341883
20221212013000,426.17614602907463,4.4761147498310168,9.0720135215891836E-003,1,-4.7497610548550036,0,-0.22484199264182286,2,0.24449322929477635,1,62.496641136927792,1.3893438612969631,2.9830212689959295,0.52621128424898178,0.29022672029784319,0.17395058560526064,8.6380638295891252E-002,11.360673217496712,1.6724360991862584,367.43436364671135,3354.0000000000000,6131.0000000000000,-9999.,94.573216353081605,84.209999999999994,-2.6176666666666506,0.79397040179434553,-2.1077939419216136,9.9045839983975259E-002
20221212020000,426.09418524462757,4.4166117414018284,4.3784543342292932E-002,0,-8.7931336837450385,0,5.0991027219974319,0,0.39940816571061327,0,60.216567316669412,1.2985800130639857,3.0911721616109484,0.53656502733305556,0.44392580681488159,0.22070347796786222,0.18974743095389257,65.056033840950832,0.29205592284416310,72.657519982815728,619.00000000000000,1110.0000000000000,2877.0000000000000,94.597936923611115,83.015666666666661,-2.6019999999999754,0.85501909082379202,-2.0930233510334801,9.7906643169954871E-002
20221212023000,426.02580939153847,4.3056278685634615,2.3100640048536892E-002,0,-10.038152092679217,0,5.2475357870719952,1,0.68875374023679070,0,61.674224775822651,1.5799638077980342,3.5992766520910511,0.55189200092373025,0.47296559207011707,0.23959733022961383,0.13783186885488463,21.842921295918728,0.86984702012134618,189.18522830736396,1752.0000000000000,3216.0000000000000,8682.0000000000000,94.603891524839568,80.599000000000004,-2.5459999999999923,0.98074574888253274,-2.0513994074699440,0.13549464942349418
20221212030000,425.93030826021783,4.2952332852004833,6.9112227568930762E-002,0,-15.650943438840127,0,6.5200089193275117,0,0.73629450188788415,0,50.210159133240126,1.4044155291583877,4.5838693398882242,0.79941635455657978,0.46024330734754848,0.30151705141353585,0.23837336552382618,72.466682206836083,0.26218945619408601,103.75560818043083,189.69834290781989,227.02046682784714,284.20268523986744,94.601234099826385,80.869000000000000,-2.6240000000000236,0.96151405417600755,-2.1177740020751799,0.16057084069765040
20221212033000,426.46403707369853,4.3397434895546354,1.5385083791758292E-002,0,0.90916641145851262,2,-5.2000728480683822,1,-0.36524880622860201,1,69.110884706795630,1.0940341831762299,2.5806274332058479,0.42733802765460566,0.36588610124989729,0.18727727831791577,0.11244379594864105,-130.95168772877724,-0.14509167716381147,146.32332967293198,544.00000000000000,781.00000000000000,1376.0000000000000,94.613315650173604,82.253333333333330,-2.7119999999999891,0.88612723975370100,-2.2110992855495510,0.13774674223740813
20221212040000,426.58375441571786,4.3905966320177532,1.9544668435298260E-002,1,-5.8733873204589155,0,1.3513392375773781,1,0.31699779387770999,0,57.017899868234167,1.2561826928678417,2.9682734373633024,0.55641810870378228,0.31957649946628153,0.15727532993802226,0.12671767686056559,29.012792102537730,0.65488354008982408,143.11709447631554,1314.0000000000000,2405.0000000000000,6464.0000000000000,94.618001123914937,83.653333333333336,-2.7816666666666379,0.81200694556762298,-2.2568136452568979,0.15770324294467422
20221212043000,426.63690247240908,4.3720984869803141,2.8901945647166499E-002,0,-9.5838700662097374,0,1.6005865394372076,0,0.50558389738272103,0,68.637504078147472,0.96688115039538092,2.9977663428758219,0.41576101866254600,0.42277391143076404,0.19648095748050290,0.15408304005235118,31.968342704660820,0.59433797289810386,60.119750734582766,498.00000000000000,886.00000000000000,2262.0000000000000,94.627556939052255,83.373333333333335,-2.7920000000000300,0.82528142103513236,-2.2611642663936209,0.12656107145808940
20221212050000,426.86433144803101,4.4197424801714016,2.9010649484959621E-002,0,-0.73887160722445400,2,-2.6647634955967523,1,-0.27500639906590985,1,87.234124417595282,1.2345684072710976,2.8021754582060963,0.40386445959286454,0.37967819021161187,0.19053598801882335,0.15434248197582157,416.82683536390590,4.5582477873365009E-002,99.428265122154073,668.00000000000000,1122.0000000000000,2587.0000000000000,94.648490627821189,84.616666666666660,-2.8423333333333289,0.76071446608537485,-2.3375094723171514,0.11887713730907820
20221212053000,426.93606746859660,4.4242501786247450,3.2291335737702188E-002,0,-8.4618380588117947,0,1.9093107498579640,0,0.34918572514434593,0,98.339272312941162,1.2284221169821932,3.8237837822045040,0.47719904723320211,0.36748872533916505,0.20752597348106236,0.16281544750338295,42.734334967364724,0.44460736348207791,86.421511263082550,758.00000000000000,1369.0000000000000,3596.0000000000000,94.674826877170148,84.680333333333337,-2.8349999999999795,0.75797945264375810,-2.3204964938693138,0.18981534752690091
20221212060000,427.00367663253485,4.4038137071390819,9.2962764173928764E-003,1,-2.4369626309703882,0,-0.75194589755493879,1,4.8562047816893585E-002,0,109.31285236396575,1.0496666942418447,2.3388978029055671,0.43599544170560084,0.26199374304417994,0.15778464733719522,8.7349828283100603E-002,22.916182711915855,0.82910841822361903,205.41836602196366,1936.0000000000000,3572.0000000000000,9732.0000000000000,94.690589443576400,84.359666666666669,-2.8439999999999941,0.77332738179758220,-2.3227131703694681,0.16913392819338238
20221212063000,426.59580327090151,4.3097476932441827,4.1753078384501506E-002,0,-11.801995598738392,0,3.4390728038206939,0,0.52906334460356830,0,100.63076045074702,0.93195317621109486,2.8262377684773483,0.40023520105480770,0.50465833601567411,0.20668842023474659,0.18515313691207061,45.065039717590324,0.42161285375687119,40.009646703162076,321.00000000000000,567.00000000000000,1426.0000000000000,94.691519603736666,81.879999999999995,-2.7330000000000041,0.90335774143107250,-2.2234227717376598,0.17812237271817380
20221212070000,426.34591241323614,4.2627403227871294,3.4077642298817705E-002,1,-7.8560554627291275,1,2.7654733932323081,1,0.48179225365892508,1,105.98341320403536,0.99615833515453989,2.6440159041097546,0.39392880512498524,0.48509854737119446,0.17553307219657568,0.16729527515777393,49.941143750368866,0.38044783465456106,55.944202060990612,467.00000000000000,831.00000000000000,2131.0000000000000,94.695438619357631,80.430666666666667,-2.6396666666666420,0.98240096136746047,-2.1217642652723043,0.13658556315159098
20221212073000,427.01154784635924,4.3252970284975163,1.2774207875190209E-002,0,-5.1182896750687918,0,0.43424694538302333,2,3.6704595948568140E-002,2,107.88366035385654,1.0977349968761223,1.9807730308049691,0.29665166183894709,0.31331702685021712,0.11979288330655845,0.10238254655119640,17.572288175962502,1.0812479177293766,167.44184737634689,1479.0000000000000,2677.0000000000000,7059.0000000000000,94.713758015407990,82.791666666666671,-2.8303333333333285,0.85172161596821017,-2.3098430879381340,0.19023002842006820
20221212080000,426.27414143033604,4.2396005723629431,4.3401014810318682E-002,0,-4.5151114221062647,0,2.3120350613424439,1,-0.40328930586654332,1,99.477502044561035,1.2268364479106146,3.8040104340814818,0.53929395840510308,0.42807637260802817,0.26167217932919823,0.18875464341056078,124.83311615095022,0.15220320204956586,67.512712331032887,535.00000000000000,940.00000000000000,2348.0000000000000,94.724509976368907,80.260666666666665,-2.6803333333333512,0.98794668160536392,-2.1868532989803953,0.14797801168259811
20221212083000,427.13494526653881,4.3189654375204825,3.1267263996270701E-002,0,-9.5828794590897832,0,0.47919143678848719,2,0.29199632077894788,0,96.275976955312672,0.99595034717814590,2.5944891077319547,0.43318518656239574,0.34668731384779949,0.21160524499297040,0.16015067550502296,35.930662820569147,0.52879625669257380,59.614549344888580,497.00000000000000,885.00000000000000,2267.0000000000000,94.744308370876738,82.731999999999999,-2.8360000000000127,0.85431465115796812,-2.3300359369914077,0.17891045032523512
20221212090000,428.46592376269120,4.4607118572048714,3.2970869195128517E-002,0,-4.0751462953493309,0,-2.8547078416544212,1,-0.25277621289032159,1,107.06746737946391,1.1565391527980777,3.1421387331815338,0.42727300261212192,0.30613488861633481,0.20754403063092725,0.16434787333584541,91.314259841288035,0.20807264969374575,76.478402235824930,637.00000000000000,1135.0000000000000,2908.0000000000000,94.746287004340289,87.793333333333337,-3.1993333333333567,0.58778486073459935,-2.6900267749362570,0.11457983650277816
20221212093000,428.08087500039341,4.4211803955543125,7.7257768607501984E-002,1,-18.594579014191389,0,2.5398811512167723,1,1.6816511962395737,0,118.12096325013931,1.3270770913749663,3.4375831918506745,0.49287394505159349,0.59668394070683850,0.30275283665103625,0.25158299588108057,71.788137838728957,0.26466768148636521,107.97652601931215,197.41552690999376,236.25596508215312,295.76443313016779,94.748822938225771,86.853333333333339,-3.1739999999999782,0.63424594464956041,-2.6652890378865095,0.15233646417229169
20221212100000,427.42914720193335,4.3412625020259323,4.4055885589332863E-002,0,-7.7660041691318202,1,-4.8182935862809337,2,-0.31058205744006701,2,112.46639536218734,1.4025480387127027,3.5000475690176005,0.55142138097631732,0.43738808193448508,0.25918770537439439,0.18999941609049439,74.036442765199951,0.25663037404777572,82.829558867833427,710.00000000000000,1275.0000000000000,3311.0000000000000,94.747760877170137,84.933333333333337,-3.1190000000000282,0.72986156286851156,-2.5976320368448569,0.12970214356562879
20221212103000,427.34606898346243,4.3163380993004212,2.3455429883441330E-002,0,-5.7030888208836377,0,3.7010677353367036E-002,2,0.22324122954162282,0,101.28250234364641,1.1500487560224595,2.4619010887779260,0.40691403591261904,0.30386409342799092,0.18204716510591012,0.13862665553853357,39.153844053484654,0.48526525196467951,102.71171648321999,918.00000000000000,1668.0000000000000,4424.0000000000000,94.735543264539928,84.836666666666673,-3.1826666666666483,0.73106496360189399,-2.6734863154093205,9.7513277122209432E-002
20221212110000,427.54814334589787,4.3694514777146480,2.1334362969343230E-002,0,-4.9612370544478717,0,-0.39470212531064247,2,0.18070348474718378,1,94.412598213910684,1.1192324812207113,3.2758323368052298,0.30234540090363315,0.28216519899179077,0.15321376121301153,0.13218704121733740,39.025798076965422,0.48685743626635930,106.54871848467384,957.00000000000000,1741.0000000000000,4627.0000000000000,94.743935211371536,86.376666666666665,-3.2586666666666702,0.65310312553221594,-2.7402696397569457,7.7273240037243687E-002
20221212113000,427.31813611509858,4.3873254729543092,5.2974470679190921E-002,0,-11.302994416988826,0,1.1627238379651783,0,0.30612640278420877,0,109.34183908065593,1.3053104874509467,3.7313069916027626,0.48363347988774136,0.40683981040664868,0.25379187677165460,0.20828680596348359,67.023479429281153,0.28348274607330065,106.90601325514005,195.45828815455252,233.91365017764315,292.83213281891921,94.761871720807648,86.593333333333334,-3.2350000000000136,0.64385239716162634,-2.7386156383458911,0.14058311457755551
20221212120000,428.01492795460535,4.4541334333084972,2.4159508028817576E-002,0,-5.3324662137154757,0,0.15155743824170906,2,0.26740174417505053,0,98.010579246597416,1.2152612698622716,2.7864332556453397,0.32317774116090431,0.33582118236419112,0.17832695534360848,0.14061726585611814,43.712484419298050,0.43465843345229627,110.03460266473930,994.00000000000000,1812.0000000000000,4834.0000000000000,94.755363031901041,89.173333333333332,-3.4266666666666765,0.51255829587218615,-2.8979374406602574,8.6222256919360168E-002
20221212123000,427.65349261923006,4.4594666300271237,5.4135548391215045E-002,0,-11.142452628469375,0,1.5084886640610649,0,0.86349458227148701,0,90.686941289640615,1.1688689872642879,3.3544974465940451,0.46652472820294566,0.42705575253455152,0.24424117731727957,0.21048575468221609,70.163014740541669,0.27079794205338498,111.16753071908784,203.24970121993417,243.23798166224159,304.50508937221110,94.756264792317722,89.376666666666665,-3.4410000000000309,0.50239347002008683,-2.9144605382283544,8.0191108833471247E-002
20221212130000,427.01760620976052,4.4384582382143707,7.6271595622756289E-002,0,-11.031639056979566,0,0.82296225799179368,0,0.46610534423964989,0,105.15471421865358,1.4384218270232649,3.2908963258571542,0.49641462012934251,0.44074102423249029,0.28356276089770527,0.24984962622906143,118.53089932264908,0.16029575501895690,113.15623948005909,206.88569510111759,247.58933769222315,309.95247077105756,94.761124565055837,88.723333333333329,-3.4053333333333171,0.53471419867119097,-2.8903018687324789,7.0590667447930258E-002
20221212133000,426.91699253836862,4.4290677794397970,0.10921435030346094,0,-14.756691087052117,0,2.9273525564081586,1,0.64213318004163067,0,97.601172505328620,1.3447023916731029,3.9937476306340534,0.67563957259160368,0.61657207193423924,0.35586917792325778,0.29894795018804271,151.80424821635236,0.12516118766927445,108.91785093844821,199.13656908235924,238.31561300217041,298.34286791931612,94.776818039713547,88.590000000000003,-3.4113333333333458,0.54079400983424364,-2.9022818951076488,7.9562593679005880E-002
20221212140000,426.66625828402692,4.3828987437221496,0.22548345201799033,0,-18.383434364071263,0,1.9707645713221482,1,0.69985714486033379,0,125.37448916724510,1.8411902336199089,4.9045242638038848,0.88186826138315288,0.74251408051680046,0.43834971538768364,0.42949969636164803,361.45082895540332,5.2565932840464631E-002,123.18805708036787,225.22705715860496,269.53926362580228,337.43117336693382,94.808672139539937,87.480000000000004,-3.3783333333333303,0.59486927097937559,-2.8956325717501841,7.7098844514693135E-002
20221212143000,426.83517312782982,4.4396240231261919,0.22998202367796350,0,-15.920744925807853,0,2.1819963597188896,0,0.85000749335873604,0,116.89040308012457,1.9102729212609675,5.4154544876827897,0.88168099184878923,0.67339310078883563,0.47276900819335871,0.43374264282614960,429.85376036307827,4.4201078952878184E-002,116.87493909125268,213.68466400878992,255.72596699381819,320.13856512909734,94.807643505859374,88.836666666666659,-3.4123333333333221,0.52906333150449480,-2.9253093575371167,5.3952897113210628E-002
20221212150000,426.53553513515300,4.4503539495679600,0.21681731886860814,0,-7.7277384558246727,0,-0.55982562420856474,2,0.73141158893466807,1,117.88335515208749,1.9338349687764815,6.2550225979546390,0.92424393843681873,0.78866444679313152,0.53878074535247455,0.42113841923883194,810.71633840505751,2.3436064008996258E-002,102.81704940489162,187.98235812816574,224.96687131522916,281.63182734657818,94.825392139539943,88.799999999999997,-3.3720000000000141,0.53240329739399328,-2.8813856489393288,4.4408731850766658E-002
20221212153000,426.08151252234745,4.4543418961460004,0.34622270042159492,0,-5.0027393883798510,0,6.5649061601135346,0,0.79577538611148246,0,120.08172457058240,2.5273502015365379,6.5350211869976862,1.2018207728626848,0.88980804997298812,0.66305590951608173,0.53221599298739031,2527.6298345947657,7.5169234592636133E-003,105.02316846039338,192.01584736720793,229.79392776683673,287.67472922463486,94.828546570963553,88.560000000000002,-3.3233333333333235,0.54579246872068210,-2.8439215291340929,3.8857645697951998E-002
20221212160000,425.91252959030214,4.4310631188486740,0.49993197517856264,0,0.34282205894257478,2,4.8132594012687244,0,0.97871020985989365,0,126.87668393254006,2.2507362772060149,6.4036092660514807,1.1734890914704916,0.91891939658176902,0.68414266447890559,0.63953593722177493,-64000.041198098770,-2.9687480889566093E-004,118.63955880006873,216.91095163309606,259.58700927475576,324.97213189688676,94.827996431423614,88.096666666666664,-3.3233333333333235,0.56789769982562799,-2.8554660373263800,4.0715144440479994E-002
20221212163000,425.57932989274838,4.4083974042678831,0.32294882121916124,0,4.1439806427842942,0,9.6293951989035360,0,0.88295893184810204,0,117.01398082111871,2.1363485317463837,7.6682929173391354,1.0357837336652764,0.88081948245730435,0.58158442857126458,0.51406414608560880,-2749.9650364259555,-6.9091787525756010E-003,113.44321745607321,207.41038236820248,248.21725434392593,310.73854790768894,94.840214820743981,87.083333333333329,-3.2353333333333012,0.62030481744234578,-2.7724931118580685,6.0479416137734950E-002
20221212170000,425.42368502641978,4.4006179588042258,0.57582931761658951,0,11.712971795311377,0,9.5648972425569330,1,1.0264693513005916,0,118.61225186816210,2.2888386237150757,6.7944048051908688,1.2725947635463020,0.95446721608435137,0.68921256357549143,0.68673302123087132,-2319.0873887253651,-8.1928779796620454E-003,124.85406766738299,228.27305585849265,273.18454611064482,341.99463447300099,94.817936366438602,85.786666666666662,-3.0609999999999786,0.69150733827015531,-2.6057035004704971,6.1044375560869044E-002
20221212173000,425.42000120656655,4.4497537252494297,0.33325366077552726,0,9.0330429459411690,0,6.8503167481087672,0,0.18981307973893233,1,128.86812065757965,1.8936682191608025,5.6694356763960494,1.0321487165039116,0.74886707890261406,0.52738384114218861,0.52258096036779167,-1325.0427518102701,-1.4339159981096646E-002,124.30148317741480,227.26275517304691,271.97547422456176,340.48101994531436,94.811416235894100,85.890000000000001,-2.9289999999999736,0.69326216558705711,-2.4699311557345709,7.5817096145152432E-002
20221212180000,425.58841632454130,4.4308730419824691,0.65567356123969012,0,16.369238382770561,0,17.015896098384392,0,0.54550584443407713,0,136.15455327548386,2.9732779016272608,8.5299448332448282,1.5496329119918444,1.1221143900810782,0.74455720761010891,0.73304955819339401,-2017.8702848135079,-9.4158678796124832E-003,123.66394909350417,226.09713953659104,270.58053001011154,338.73471531892488,94.786964401692714,85.750000000000000,-2.9676666666666733,0.69812812785718503,-2.5176178673638105,8.3651968437204363E-002
20221212183000,425.53078187841334,4.3964058073321644,0.47315315527557811,0,12.242637556367784,0,0.71464751259953918,2,0.43678683259632434,1,142.01449958305048,2.7071860572229358,7.5868292841823584,1.3282843118062315,1.0395969227911610,0.80271316406322202,0.62268705971986527,-1653.5232039056689,-1.1490615889224572E-002,102.19330955126921,186.84196274412079,223.60210930157251,279.92330725403201,94.773754548245407,85.450000000000003,-3.0273333333333312,0.70966479995020393,-2.5744672411439069,5.5578808315592455E-002
20221212190000,425.42905884561844,4.3394569036491895,0.81747989169247637,0,15.765701356135899,0,16.306238908377445,0,0.90133166304922496,0,123.66452220130412,2.9149995568724529,7.9213434571253698,1.4825208899260869,1.2304504503262610,0.86627553647361799,0.81857887972010523,-2916.6103531428512,-6.5144114912457102E-003,119.66812538750801,218.79149939942283,261.83754465244760,327.78953513151396,94.754884418402767,84.213333333333338,-3.0093333333333590,0.77101538857442053,-2.5545708702935030,5.6964271185953659E-002
20221212193000,425.48808128276517,4.3793901987206656,0.68439280691766924,0,18.356061453761651,0,5.6625431095552230,0,0.72874177633268822,0,122.57116372744495,2.8259577361306794,8.1860827348101921,1.3383923104147251,1.1018515440641554,0.79969274994338302,0.74928626069086635,-1920.5844672625342,-9.8928218591089936E-003,118.85968862947072,217.31341916805113,260.06866012245428,325.57510160343651,94.710973631944455,84.406666666666666,-2.9233333333333462,0.76646554290026081,-2.4652074373033201,6.0222349549698614E-002
20221212200000,425.61488824975822,4.4477586679983343,0.72515810517104029,0,8.2935038005628918,0,11.172572449213817,0,0.77132582910621050,0,130.35778136123730,3.0216589030625385,10.341024947977278,1.4922966320398134,1.2616573996661602,0.85073046811857067,0.77143951056222271,-4638.9895768368979,-4.0957194848786835E-003,115.78780281001600,211.69703216235575,253.34727932189344,317.16073042919510,94.705153257697035,85.153333333333336,-2.8343333333333476,0.73461300093354509,-2.3640928578516878,4.4287059322284522E-002
20221212203000,425.74622116592548,4.4753991773100141,0.59179463455813874,0,3.8433990509829656,0,4.0473711044313765,0,0.33636856628492778,1,124.11035268285750,3.1622709709299950,7.9071838273343573,1.4191756657258234,1.2029045746913629,0.83338847185942833,0.69691548111906165,-7380.4637942122663,-2.5743639600128835E-003,108.52280199434492,198.41429361813991,237.45123374322745,297.26076765809376,94.705456818793408,85.623333333333335,-2.8249999999999886,0.71185138225327027,-2.3484556494818776,3.8580316583794537E-002
20221212210000,425.97555918559590,4.4946298666723177,0.36648419441353630,0,-4.8805417507371116,0,4.3879807713055055,0,0.83755410885748383,0,131.01261792403889,2.3422494651155152,6.7440397391079667,1.1242106271430938,0.86475907697381393,0.63933551196625693,0.54836917185191936,2831.7625697601834,6.7096020700665856E-003,110.74656449886335,202.48004070907405,242.31689460477935,303.35199767643479,94.719427626302092,86.153333333333336,-2.8483333333333576,0.68441990215002368,-2.3631169382730945,3.2874125749866125E-002
20221212213000,425.88434379698185,4.4961607140074449,0.27081431513428583,0,-8.0678766058759308,0,3.1378019969695998,0,0.59518821105687048,0,118.75329570177998,1.9541490147103773,6.4726730335617226,0.92789467681226512,0.73530152098321910,0.54340320625510385,0.47139644484027332,1088.2426143362379,1.7459342015924317E-002,111.75479978809904,204.32341637794966,244.52294447570833,306.11371033543708,94.725556658420146,86.036666666666662,-2.8246666666666442,0.69140258907292040,-2.3334971152411299,3.7181142219951821E-002
20221212220000,425.79317250659153,4.5153212403293246,0.36842496272212205,0,-12.782090809030828,0,2.6064464021392393,0,0.59352609759181219,0,129.78785616568180,2.5356736387506098,6.4682071830930443,1.1434402639179060,0.87080714201694143,0.63998346674253637,0.54985873538909280,1090.1496329120487,1.7428800071460360E-002,110.89725574006647,202.75555235849976,242.64661168248480,303.76476433207023,94.727701630208344,86.170000000000002,-2.7880000000000109,0.68667023111536596,-2.2905966661240882,5.1638568727832318E-002
20221212223000,425.62376757190106,4.5100770370403955,0.48745795796704394,0,-16.538449196131968,0,4.5135986745692556,0,0.74078269541168162,0,138.10178905197910,2.8378990583785093,7.9075265020138943,1.3237897533413621,1.0171437657677507,0.71844317452118189,0.63246281679250171,1282.2882564718393,1.4817261176732351E-002,113.07561529492681,206.73828837693080,247.41292949157423,309.73162863720370,94.740251046875002,85.929999999999993,-2.7643333333333544,0.69981662632679165,-2.2685592642889674,5.6933811724326051E-002